Location: Barcelona
(41.3830°N, 2.1830°E)
Time: 12:35:43
(UTC+01:00)

ISS - Pass Details

Date: 23 March 2019
Orbit: 408 x 411 km, 51.6° (Epoch: 24 March)

Event Time Altitude Azimuth Distance (km) Brightness Sun altitude
Rises 21:55:08 0° 280° (W) 2,333 1.0 -30.7°
Reaches altitude 10° 21:57:43 10° 301° (WNW) 1,473 -0.1 -31.1°
Enters shadow 21:58:05 12° 306° (NW) 1,374 -0.3 -31.2°
